This is the latest recevied weather packets stored in our database for station/object GBTWP-2. If no packets are shown the sender has not sent any weather packets the latest 10 day(s).
| Time | Temp. | Humidity | Pressure | Rain* | Wind** | Luminosity | Snow |
|---|---|---|---|---|---|---|---|
| 1777357201 | 15.56° C | 89% | 1006.4 hPa | 0 mm | - | 0 W/m² | - |
| 1777356902 | 15.56° C | 90% | 1006.6 hPa | 0 mm | - | 0 W/m² | - |
| 1777356302 | 15.56° C | 91% | 1006.5 hPa | 0 mm | - | 0 W/m² | - |
| 1777356002 | 15.56° C | 90% | 1006.6 hPa | 0 mm | - | 0 W/m² | - |
| 1777355701 | 15.56° C | 89% | 1005 hPa | 0 mm | - | 0 W/m² | - |
| 1777355402 | 16.11° C | 88% | 1006.6 hPa | 0 mm | - | 0 W/m² | - |
| 1777354802 | 16.11° C | 88% | 1007.4 hPa | 0 mm | - | 0 W/m² | - |
| 1777354502 | 16.11° C | 87% | 1007.7 hPa | 0 mm | - | 0 W/m² | - |
| 1777354201 | 16.11° C | 87% | 1008 hPa | 0 mm | - | 0 W/m² | - |
| 1777353902 | 16.67° C | 86% | 1008.1 hPa | 0 mm | - | 0 W/m² | - |
| 1777353602 | 16.67° C | 85% | 1008.5 hPa | 0 mm | - | 0 W/m² | - |
| 1777353302 | 16.67° C | 86% | 1008.7 hPa | 0 mm | - | 0 W/m² | - |
| 1777353002 | 16.11° C | 86% | 1009.1 hPa | 0 mm | - | 0 W/m² | - |
| 1777352702 | 16.11° C | 86% | 1009.2 hPa | 0 mm | - | 0 W/m² | - |
| 1777351802 | 16.11° C | 87% | 1009.5 hPa | 0 mm | - | 0 W/m² | - |
| 1777350601 | 17.78° C | 79% | 1010.2 hPa | 0 mm | - | 0 W/m² | - |
| 1777350002 | 17.78° C | 76% | 1010.7 hPa | 0 mm | - | 0 W/m² | - |
| 1777349702 | 17.78° C | 75% | 1010.2 hPa | 0 mm | - | 0 W/m² | - |
| 1777348802 | 17.78° C | 73% | 1010.4 hPa | 0 mm | - | 0 W/m² | - |
| 1777348502 | 17.78° C | 72% | 1010.3 hPa | 0 mm | - | 0 W/m² | - |
| 1777348202 | 17.78° C | 72% | 1010.4 hPa | 0 mm | - | 0 W/m² | - |
| 1777347602 | 17.78° C | 71% | 1010.1 hPa | 0 mm | - | 0 W/m² | - |
| 1777347002 | 17.78° C | 70% | 1010 hPa | 0 mm | - | 0 W/m² | - |
| 1777346702 | 17.78° C | 70% | 1010.1 hPa | 0 mm | - | 0 W/m² | - |
| 1777346102 | 17.78° C | 70% | 1010.1 hPa | 0 mm | - | 0 W/m² | - |
* Rain latest hour (hover to see other rain measurements)
** Current wind speed in m/s (hover to see current wind gust speed)